Date,TemperatureHighF,TemperatureAvgF,TemperatureLowF,DewpointHighF,DewpointAvgF,DewpointLowF,HumidityHigh,HumidityAvg,HumidityLow,PressureMaxIn,PressureMinIn,WindSpeedMaxMPH,WindSpeedAvgMPH,GustSpeedMaxMPH,PrecipitationSumIn
2013-1-1,30,28,27,27,25,24,90,88,85,30.26,30.10,8,2,8,0.00
2013-1-2,37,32,28,31,28,25,90,85,79,30.46,30.11,10,2,10,0.00
2013-1-3,43,38,30,36,31,26,85,77,68,30.55,30.35,12,3,12,0.00
2013-1-4,50,46,42,40,38,35,86,72,62,30.35,30.09,21,4,25,0.00
2013-1-5,51,46,39,43,36,24,88,68,52,30.19,29.95,22,5,22,0.02
2013-1-6,40,37,34,34,27,23,87,68,56,30.22,30.00,17,2,17,0.04
2013-1-7,39,35,28,34,24,18,83,66,50,30.45,30.03,9,2,9,0.00
2013-1-8,32,28,24,26,20,16,85,71,57,30.45,30.25,10,1,11,0.00
2013-1-9,32,30,26,29,26,23,87,86,83,30.26,30.16,6,0,6,0.00
2013-1-10,33,29,25,30,26,22,89,88,86,30.15,29.80,7,2,7,0.00
2013-1-11,39,34,30,35,28,22,89,79,63,29.97,29.77,13,3,21,0.10
2013-1-12,34,30,27,26,22,19,84,71,56,30.09,29.97,11,3,15,0.00
2013-1-13,32,30,28,26,25,23,85,81,74,30.11,30.06,14,4,14,0.00
2013-1-14,35,32,28,33,28,23,90,86,77,30.06,29.87,14,4,20,0.31
2013-1-15,37,36,34,34,33,31,91,89,87,29.90,29.68,12,2,12,0.18
2013-1-16,39,36,33,36,33,30,91,88,80,29.68,29.53,11,3,14,0.16
2013-1-17,37,36,34,33,32,30,91,85,80,29.66,29.52,13,3,26,0.12
2013-1-18,37,34,30,31,29,27,91,84,71,29.64,29.48,16,3,16,0.04
2013-1-19,31,29,28,27,24,22,89,81,76,29.61,29.47,0,0,0,0.02
2013-1-20,35,33,30,32,29,25,90,87,81,29.60,29.48,9,1,11,0.00
2013-1-21,41,38,35,39,35,32,91,90,89,29.48,29.37,10,2,12,0.08
2013-1-22,38,34,31,35,29,25,89,82,76,29.64,29.40,14,5,17,0.02
2013-1-23,35,33,30,29,26,23,84,77,73,29.82,29.64,10,2,13,0.00
2013-1-24,34,32,31,30,28,24,90,84,68,29.81,29.69,14,5,17,0.00
2013-1-25,34,32,29,24,21,17,75,65,60,29.95,29.71,15,5,18,0.00
2013-1-26,34,30,27,22,20,17,73,65,59,30.03,29.91,11,3,14,0.00
2013-1-27,32,28,22,26,21,16,81,75,64,30.04,29.88,9,2,12,0.00
2013-1-28,33,32,30,29,27,26,86,83,80,30.12,29.87,7,0,8,0.00
2013-1-29,38,34,28,34,29,23,87,83,78,30.15,29.98,11,2,16,0.10
2013-1-30,44,41,37,41,37,34,90,88,79,29.99,29.79,10,2,15,0.10
2013-1-31,53,48,41,43,34,28,86,61,45,30.00,29.77,27,5,31,0.08
2013-2-1,52,47,42,36,33,29,71,60,45,29.86,29.49,15,4,22,0.00
2013-2-2,47,43,40,44,37,33,89,80,71,29.48,29.23,16,2,114,0.45
2013-2-3,41,36,33,34,29,22,88,75,60,29.94,29.43,18,6,28,0.04
2013-2-4,40,35,30,31,28,22,86,75,63,29.94,29.87,11,4,14,0.06
2013-2-5,44,40,36,36,33,31,84,79,73,29.92,29.60,12,3,12,0.02
2013-2-6,40,38,34,36,34,30,88,85,81,29.60,29.42,10,2,12,0.31
2013-2-7,36,34,31,31,29,23,89,82,73,29.73,29.40,12,3,17,0.24
2013-2-8,39,33,29,27,24,21,74,67,56,29.84,29.72,11,4,13,0.00
2013-2-9,34,31,28,27,24,21,86,77,64,29.92,29.84,9,2,11,0.00
2013-2-10,32,30,27,28,26,24,88,86,80,29.90,29.82,9,2,10,0.00
2013-2-11,34,28,26,28,25,22,88,85,75,29.94,29.88,11,1,14,0.10
2013-2-12,36,32,26,32,27,22,87,80,74,29.90,29.79,14,5,17,0.12
2013-2-13,44,40,36,36,34,32,86,77,72,30.01,29.85,10,3,13,0.02
2013-2-14,42,38,37,35,34,32,87,83,72,30.11,30.01,7,2,8,0.08
2013-2-15,45,40,38,38,35,33,88,82,75,30.09,30.02,6,1,9,0.00
2013-2-16,46,39,34,34,32,29,85,75,55,30.16,30.08,10,3,13,0.00
2013-2-17,39,36,33,32,30,28,85,78,72,30.19,30.14,8,2,114,0.00
2013-2-18,41,37,33,31,29,27,80,75,66,30.16,30.08,8,1,8,0.00
2013-2-19,41,36,32,32,29,26,87,75,59,30.09,29.83,16,3,18,0.02
2013-2-20,41,36,30,32,28,23,86,73,57,30.06,29.84,12,4,18,0.00
2013-2-21,39,33,27,26,22,16,78,65,40,30.07,29.93,10,3,11,0.00
2013-2-22,35,32,29,32,28,22,90,85,66,29.93,29.73,15,2,19,0.08
2013-2-23,42,38,34,39,35,32,90,88,86,29.80,29.67,10,2,14,0.35
2013-2-24,46,44,42,42,40,38,89,85,80,29.90,29.75,11,3,12,0.35
2013-2-25,50,47,44,44,41,40,88,81,75,30.11,29.89,11,2,12,0.00
2013-2-26,57,50,46,44,42,40,83,75,60,30.12,30.06,9,2,14,0.00
2013-2-27,50,46,42,42,39,37,84,76,65,30.29,30.12,8,2,8,0.02
2013-2-28,53,46,42,38,35,32,81,67,46,30.30,30.16,10,2,11,0.00
2013-3-1,42,39,35,35,32,28,86,78,67,30.16,29.99,11,3,14,0.00
2013-3-2,48,40,35,30,27,26,73,59,43,30.14,30.03,10,3,13,0.00
2013-3-3,51,40,31,30,27,24,77,61,40,30.12,29.98,12,3,16,0.00
2013-3-4,50,40,31,30,26,24,77,59,40,30.33,30.07,11,2,16,0.00
2013-3-5,55,43,32,29,26,24,76,53,30,30.35,30.12,8,1,15,0.00
2013-3-6,53,46,38,40,33,27,69,61,55,30.12,29.79,6,1,7,0.00
2013-3-7,55,51,47,46,43,39,80,73,68,29.79,29.63,12,1,12,0.00
2013-3-8,59,52,47,49,46,43,86,80,68,29.65,29.56,10,2,11,0.00
2013-3-9,59,52,48,50,47,45,90,81,71,29.57,29.53,7,2,8,0.02
2013-3-10,57,52,49,49,46,43,89,81,65,29.53,29.43,7,1,10,0.06
2013-3-11,60,50,44,47,41,34,87,71,48,29.54,29.44,9,2,12,0.00
2013-3-12,57,50,42,43,37,30,81,62,51,29.55,29.41,8,1,9,0.02
2013-3-13,53,48,46,46,42,40,86,79,66,29.44,29.39,9,2,9,0.02
2013-3-14,46,37,27,41,33,25,91,87,78,29.43,29.26,21,3,21,0.55
2013-3-15,33,29,25,25,22,18,90,76,57,29.90,29.26,19,2,23,0.00
2013-3-16,36,31,27,20,18,15,70,57,44,30.15,29.89,14,4,18,0.02
2013-3-17,40,32,25,24,19,16,76,60,42,30.16,30.00,14,2,14,0.00
2013-3-18,40,36,31,36,28,19,87,74,60,30.00,29.35,13,3,15,0.43
2013-3-19,53,44,39,39,34,29,89,69,44,29.69,29.27,18,4,21,0.04
2013-3-20,60,49,37,40,36,30,79,62,43,29.73,29.68,16,2,19,0.00
2013-3-21,52,44,36,42,38,29,86,80,65,29.77,29.70,23,6,27,0.39
2013-3-22,44,37,32,29,26,23,76,65,53,29.95,29.74,32,9,32,0.00
2013-3-23,35,33,29,25,24,21,77,69,63,30.10,29.95,6,1,9,0.00
2013-3-24,35,30,24,21,12,8,65,47,36,30.18,30.07,9,2,12,0.00
2013-3-25,37,32,29,28,18,10,89,60,41,30.07,29.70,14,5,18,0.00
2013-3-26,33,30,28,28,26,25,90,86,81,29.75,29.66,14,4,15,0.00
2013-3-27,34,31,28,30,28,26,89,87,82,29.93,29.74,8,1,8,0.02
2013-3-28,40,35,32,30,29,28,87,79,67,30.02,29.93,9,2,11,0.18
2013-3-29,37,36,35,34,32,30,88,85,79,29.97,29.71,9,2,11,0.47
2013-3-30,48,41,36,41,36,32,90,83,70,29.72,29.53,9,2,13,0.27
2013-3-31,47,42,34,45,38,27,91,86,74,29.63,29.34,14,3,17,0.49
2013-4-1,46,39,33,28,26,25,74,62,47,29.87,29.62,10,4,15,0.00
2013-4-2,45,40,37,38,30,25,88,68,57,29.86,29.60,17,5,20,0.24
2013-4-3,45,42,40,42,38,35,90,87,84,29.72,29.57,20,4,20,0.16
2013-4-4,46,41,38,36,34,32,84,76,69,29.85,29.70,10,3,12,0.00
2013-4-5,44,42,38,40,37,33,88,83,74,29.83,29.61,12,3,15,0.10
2013-4-6,50,44,40,40,36,32,87,74,60,29.98,29.68,12,3,15,0.00
2013-4-7,48,43,39,37,34,31,83,71,61,30.00,29.89,12,2,12,0.00
2013-4-8,54,46,40,36,30,25,69,54,41,29.92,29.79,10,2,15,0.00
2013-4-9,54,48,43,42,39,36,80,71,61,29.80,29.73,8,1,11,0.00
2013-4-10,59,51,46,46,42,38,88,73,52,29.89,29.73,13,2,13,0.02
2013-4-11,66,54,42,46,41,36,78,63,45,29.92,29.78,13,2,15,0.00
2013-4-12,67,57,51,51,46,43,83,68,48,29.82,29.69,22,5,29,0.00
2013-4-13,65,55,48,46,42,39,82,65,42,30.21,29.81,15,3,15,0.00
2013-4-14,65,57,46,41,38,34,75,51,34,30.33,30.21,13,3,13,0.00
2013-4-15,66,56,45,41,38,35,75,54,36,30.34,30.22,6,0,8,0.00
2013-4-16,72,58,46,41,37,34,67,47,31,30.28,30.17,5,0,10,0.00
2013-4-17,77,60,46,44,40,37,69,49,28,30.24,30.14,8,0,10,0.00
2013-4-18,77,68,50,47,42,40,73,42,27,30.21,30.06,7,0,9,0.00
2013-4-19,79,66,52,46,42,40,66,44,29,30.12,29.99,6,0,7,0.00
2013-4-20,79,65,54,52,47,37,82,56,24,30.12,30.03,11,1,11,0.00
2013-4-21,75,65,56,48,45,41,62,50,37,30.13,29.96,13,3,13,0.00
2013-4-22,77,66,54,48,43,38,57,44,33,30.01,29.91,9,1,9,0.00
2013-4-23,75,65,55,52,49,46,75,57,41,30.25,30.01,16,2,16,0.00
2013-4-24,79,67,54,52,46,41,70,48,32,30.34,30.24,15,1,15,0.00
2013-4-25,82,68,53,52,46,42,70,48,28,30.29,30.15,10,1,13,0.00
2013-4-26,84,71,56,53,48,44,71,47,28,30.16,29.78,14,2,16,0.00
2013-4-27,81,71,61,53,49,44,54,46,36,29.78,29.69,21,5,21,0.00
2013-4-28,79,69,60,55,52,49,76,56,43,30.00,29.75,24,4,24,0.00
2013-4-29,84,71,59,55,52,50,71,52,35,30.09,30.00,23,3,23,0.00
2013-4-30,86,74,61,58,54,50,73,50,33,30.12,29.98,12,1,12,0.00
2013-5-1,86,76,64,60,55,51,66,50,35,30.11,30.01,13,1,13,0.00
2013-5-2,84,71,64,64,57,52,83,62,44,30.07,29.85,12,3,19,0.37
2013-5-3,80,67,59,62,58,51,84,73,51,29.93,29.81,10,2,13,0.06
2013-5-4,73,64,54,55,52,49,81,67,52,30.08,29.90,13,2,13,0.00
2013-5-5,79,67,57,55,53,50,78,61,40,30.17,30.08,8,2,10,0.00
2013-5-6,78,68,62,62,55,49,87,65,46,30.15,30.04,15,3,15,0.37
2013-5-7,76,67,60,61,58,56,88,75,60,30.10,29.98,12,2,12,0.02
2013-5-8,78,68,61,59,56,54,85,67,46,30.07,29.96,6,1,6,0.00
2013-5-9,80,70,60,58,54,49,81,59,41,30.08,29.99,13,1,13,0.00
2013-5-10,81,70,58,54,51,48,75,53,38,30.03,29.83,16,2,16,0.00
2013-5-11,76,65,59,60,55,51,79,70,54,29.89,29.77,12,4,12,0.00
2013-5-12,65,59,56,52,50,46,82,72,63,29.84,29.74,16,6,18,0.00
2013-5-13,62,57,53,46,44,39,75,62,46,29.97,29.82,22,8,24,0.00
2013-5-14,65,57,51,48,44,41,73,62,51,29.96,29.90,13,4,13,0.00
2013-5-15,75,63,51,54,49,45,80,62,46,29.92,29.78,7,1,7,0.14
2013-5-16,79,68,55,55,52,48,77,57,41,29.84,29.67,13,2,13,0.00
2013-5-17,72,66,57,58,56,53,87,70,59,29.75,29.67,9,2,10,0.37
2013-5-18,76,65,56,55,52,48,88,65,38,29.96,29.73,15,4,16,0.00
2013-5-19,83,70,55,56,53,49,81,57,37,29.97,29.75,24,2,24,0.08
2013-5-20,73,64,56,56,50,46,85,61,42,29.96,29.81,14,3,14,0.00
2013-5-21,73,64,56,51,47,45,74,56,39,29.96,29.83,16,4,18,0.00
2013-5-22,69,62,57,52,48,45,77,62,48,29.84,29.66,13,3,16,0.00
2013-5-23,65,58,52,48,45,41,74,62,52,29.73,29.57,20,6,20,0.00
2013-5-24,67,59,52,48,44,41,69,59,49,29.76,29.62,9,2,9,0.00
2013-5-25,66,58,52,46,45,42,76,61,46,29.78,29.73,11,2,11,0.00
2013-5-26,63,57,51,48,44,37,82,62,43,29.82,29.71,15,3,15,0.02
2013-5-27,61,54,49,44,41,36,75,63,52,29.86,29.80,13,3,13,0.00
2013-5-28,68,60,51,51,47,42,76,63,46,29.85,29.70,16,3,16,0.00
2013-5-29,78,66,52,56,52,47,83,63,43,29.72,29.54,9,2,11,0.00
2013-5-30,68,60,53,58,54,48,88,81,65,29.59,29.48,13,2,13,0.51
2013-5-31,66,57,50,51,48,46,86,73,53,29.64,29.56,17,3,17,0.02
2013-6-1,68,58,49,52,49,45,87,73,52,29.73,29.63,11,2,11,0.00
2013-6-2,69,59,52,54,50,47,84,72,54,29.87,29.72,11,2,11,0.02
2013-6-3,62,57,53,52,49,46,83,76,66,29.95,29.86,18,7,21,0.00
2013-6-4,68,59,53,55,51,47,84,77,61,29.94,29.86,18,5,18,0.00
2013-6-5,68,62,56,58,54,51,85,78,67,30.05,29.94,7,1,10,0.00
2013-6-6,75,63,56,61,56,51,86,77,60,30.09,30.02,9,1,9,0.08
2013-6-7,79,68,59,59,56,54,86,67,43,30.06,29.96,11,3,11,0.00
2013-6-8,84,71,63,62,57,53,81,62,39,30.00,29.89,10,2,10,0.33
2013-6-9,84,73,59,62,58,54,85,62,44,29.92,29.77,15,2,17,0.00
2013-6-10,83,70,62,61,58,57,85,67,42,29.81,29.67,12,3,13,0.22
2013-6-11,74,64,58,60,56,49,88,76,57,29.90,29.77,12,2,15,0.06
2013-6-12,77,67,57,57,53,49,78,63,48,30.09,29.90,11,4,13,0.00
2013-6-13,82,72,63,55,52,49,64,50,36,30.11,30.00,14,3,14,0.00
2013-6-14,86,74,61,61,56,52,74,55,39,30.04,29.96,11,2,12,0.00
2013-6-15,87,76,64,63,60,57,79,58,37,30.02,29.93,9,2,9,0.00
2013-6-16,92,79,66,65,62,58,74,57,37,30.04,29.99,9,1,10,0.00
2013-6-17,94,82,68,66,64,60,78,56,38,30.05,29.98,11,1,11,0.00
2013-6-18,96,84,72,67,64,61,73,52,34,30.05,29.96,11,2,13,0.00
2013-6-19,100,87,72,68,64,60,69,47,31,30.03,29.94,9,2,9,0.00
2013-6-20,98,87,77,71,66,63,65,52,37,30.02,29.89,11,3,11,0.00
2013-6-21,96,86,77,70,66,64,73,54,38,29.93,29.87,11,2,11,0.00
2013-6-22,95,84,75,72,66,60,76,56,33,29.94,29.83,11,2,13,0.04
2013-6-23,86,77,69,68,65,60,86,68,46,29.92,29.81,20,2,20,0.12
2013-6-24,78,68,58,63,58,53,84,73,57,29.88,29.78,15,4,17,0.20
2013-6-25,62,59,56,55,52,49,83,79,75,30.04,29.84,15,4,16,0.00
2013-6-26,64,59,55,50,48,47,78,68,58,30.22,30.03,17,6,18,0.00
2013-6-27,70,60,54,53,50,46,77,69,55,30.21,30.11,15,4,15,0.00
2013-6-28,73,63,58,54,53,51,81,70,50,30.13,30.03,8,1,10,0.06
2013-6-29,76,67,58,54,52,47,83,60,38,30.05,29.93,11,3,12,0.00
2013-6-30,75,66,59,56,51,43,72,59,44,30.07,29.99,21,6,21,0.00
2013-7-1,76,66,55,50,47,44,68,52,39,30.12,30.07,13,4,13,0.00
2013-7-2,83,71,57,53,50,48,71,50,33,30.13,30.01,8,1,8,0.00
2013-7-3,86,74,60,55,53,51,71,50,33,30.06,29.93,11,1,11,0.00
2013-7-4,88,78,63,60,54,51,67,46,30,30.07,30.00,11,2,11,0.00
2013-7-5,85,75,65,66,60,53,81,60,40,30.16,30.07,13,4,17,0.33
2013-7-6,86,76,70,65,62,59,75,61,46,30.23,30.14,18,5,19,0.08
2013-7-7,88,79,70,64,60,58,67,54,39,30.25,30.17,12,5,15,0.00
2013-7-8,85,77,70,60,57,54,63,51,42,30.28,30.18,10,4,11,0.00
2013-7-9,87,78,70,59,56,53,59,47,39,30.24,30.03,11,4,11,0.00
2013-7-10,90,78,66,60,57,54,67,49,35,30.05,29.82,9,1,11,0.00
2013-7-11,78,72,65,60,55,48,68,56,43,29.98,29.82,16,4,17,0.00
2013-7-12,77,68,59,53,51,49,72,56,41,30.06,29.98,15,4,17,0.00
2013-7-13,78,70,61,54,52,50,72,54,41,30.07,30.01,14,4,15,0.00
2013-7-14,81,72,63,54,52,49,65,49,36,30.07,29.99,13,4,14,0.00
2013-7-15,79,72,66,57,53,47,61,52,36,30.11,29.98,14,4,16,0.00
2013-7-16,82,72,60,53,50,47,67,48,35,30.19,30.11,12,3,12,0.00
2013-7-17,88,76,64,56,54,51,66,49,33,30.21,30.10,8,1,9,0.00
2013-7-18,90,78,67,60,57,53,63,50,36,30.16,30.07,10,1,10,0.00
2013-7-19,89,78,71,67,59,56,63,54,38,30.11,29.94,8,2,11,0.00
2013-7-20,87,79,69,60,56,52,60,46,34,30.07,29.95,13,3,13,0.00
2013-7-21,83,75,67,53,50,47,51,42,34,30.14,30.06,9,2,9,0.00
2013-7-22,88,76,64,56,53,50,63,45,31,30.14,29.94,10,2,11,0.00
2013-7-23,91,80,67,57,54,50,57,42,29,29.95,29.86,11,2,11,0.00
2013-7-24,92,81,70,55,50,43,56,36,22,29.97,29.88,12,3,12,0.00
2013-7-25,84,76,68,60,53,44,58,45,31,30.01,29.94,9,1,9,0.00
2013-7-26,91,80,68,61,58,55,63,48,32,30.02,29.92,8,2,15,0.00
2013-7-27,96,84,71,64,61,58,65,48,34,29.97,29.88,8,2,9,0.00
2013-7-28,98,87,74,65,62,57,69,45,29,29.97,29.91,14,2,15,0.00
2013-7-29,100,88,76,66,62,54,55,42,32,29.97,29.79,14,3,15,0.00
2013-7-30,84,75,70,65,58,52,79,55,36,30.04,29.85,18,6,20,0.04
2013-7-31,86,77,67,58,56,53,67,49,36,30.06,29.99,15,4,15,0.00
2013-8-1,90,79,70,60,57,55,59,48,34,30.08,30.01,11,3,14,0.00
2013-8-2,95,83,68,62,59,56,69,46,29,30.10,29.97,10,1,10,0.00
2013-8-3,99,86,71,64,60,55,66,44,24,30.01,29.94,9,1,9,0.00
2013-8-4,97,86,78,62,59,56,53,41,30,30.10,29.99,10,2,12,0.00
2013-8-5,95,84,73,64,60,56,63,47,32,30.14,29.99,12,3,14,0.00
2013-8-6,100,87,73,65,61,58,61,44,29,30.05,29.92,12,1,12,0.00
2013-8-7,100,88,75,64,60,57,57,40,27,29.98,29.89,9,1,11,0.00
2013-8-8,103,89,76,63,60,57,55,39,25,29.99,29.90,10,1,11,0.00
2013-8-9,102,90,76,65,61,58,68,40,28,29.96,29.78,17,2,17,0.00
2013-8-10,76,71,66,64,59,54,81,66,55,29.99,29.86,23,7,26,0.08
2013-8-11,86,75,65,54,51,45,66,46,25,30.02,29.94,12,4,12,0.00
2013-8-12,88,79,68,58,54,51,61,43,30,30.06,29.95,10,2,10,0.00
2013-8-13,91,76,65,60,56,53,80,50,33,30.05,29.93,16,3,18,0.04
2013-8-14,75,69,64,60,52,48,79,57,40,30.18,30.02,11,3,11,0.00
2013-8-15,80,69,59,55,49,44,75,51,35,30.23,30.15,9,2,9,0.00
2013-8-16,84,73,61,51,48,45,60,43,29,30.22,30.08,6,1,8,0.00
2013-8-17,88,74,60,52,48,46,60,42,27,30.13,30.00,10,1,10,0.00
2013-8-18,92,78,62,54,50,47,59,40,26,30.08,29.97,6,1,9,0.00
2013-8-19,95,81,66,57,53,50,59,40,26,30.04,29.88,8,1,9,0.00
2013-8-20,80,71,65,62,59,51,75,66,39,30.14,29.93,21,7,25,0.00
2013-8-21,79,70,64,60,57,54,77,65,50,30.18,30.12,12,3,12,0.00
2013-8-22,82,72,61,57,54,52,72,55,41,30.14,30.02,9,1,9,0.00
2013-8-23,84,73,63,55,52,49,64,48,36,30.10,29.96,7,2,7,0.00
2013-8-24,78,71,65,53,52,49,60,50,41,30.03,29.90,13,3,13,0.00
2013-8-25,82,71,66,59,54,50,74,55,38,29.93,29.81,9,2,10,0.02
2013-8-26,71,66,62,62,59,57,86,78,67,29.95,29.87,9,1,9,0.20
2013-8-27,76,68,62,59,57,55,86,70,54,29.97,29.87,7,2,8,0.00
2013-8-28,73,66,60,60,57,55,88,73,58,29.94,29.86,10,3,11,0.33
2013-8-29,78,67,61,61,56,51,87,70,45,30.12,29.93,13,3,13,0.24
2013-8-30,76,67,61,57,54,52,80,64,46,30.13,30.06,9,1,13,0.00
2013-8-31,81,68,57,56,52,49,81,58,35,30.12,30.04,12,2,12,0.00
2013-9-1,76,68,60,56,52,46,67,58,48,30.19,30.06,14,2,18,0.00
2013-9-2,72,63,55,47,45,44,69,53,39,30.23,30.13,16,4,16,0.00
2013-9-3,74,66,61,59,52,46,73,61,51,30.25,30.07,19,5,21,0.00
2013-9-4,77,67,54,51,47,45,75,51,33,30.30,30.17,9,1,9,0.00
2013-9-5,80,67,56,51,48,46,72,53,34,30.20,30.04,8,2,9,0.00
2013-9-6,79,68,59,51,48,45,62,49,37,30.09,29.99,7,2,8,0.00
2013-9-7,81,68,56,50,46,43,62,47,32,30.18,30.08,8,1,8,0.00
2013-9-8,83,70,56,51,48,44,65,48,31,30.24,30.12,9,1,13,0.00
2013-9-9,68,62,59,57,51,45,86,68,49,30.14,30.04,6,1,6,0.22
2013-9-10,73,62,54,59,55,51,89,78,55,30.13,29.98,8,1,8,0.00
2013-9-11,68,60,56,57,52,46,88,75,50,30.00,29.92,11,2,11,0.24
2013-9-12,71,62,55,52,48,46,78,63,42,29.99,29.92,7,1,8,0.02
2013-9-13,67,59,55,50,48,46,78,66,52,30.03,29.98,14,3,14,0.00
2013-9-14,61,57,54,54,51,48,88,80,71,30.02,29.90,14,3,14,0.35
2013-9-15,75,64,52,58,54,49,88,72,51,29.97,29.78,10,2,11,0.00
2013-9-16,76,66,57,60,56,53,88,72,53,29.78,29.55,8,1,11,0.00
2013-9-17,64,57,50,58,49,39,87,75,62,29.71,29.44,19,5,24,0.22
2013-9-18,64,55,46,50,44,40,82,67,47,29.71,29.56,13,4,16,0.00
2013-9-19,63,58,54,51,46,40,80,65,44,29.96,29.57,16,4,18,0.00
2013-9-20,66,58,49,50,45,42,77,63,48,30.06,29.95,12,3,13,0.00
2013-9-21,67,60,55,51,50,47,80,70,54,30.27,30.05,13,4,17,0.00
2013-9-22,70,59,49,49,46,44,82,64,45,30.32,30.20,10,2,11,0.00
2013-9-23,68,61,54,53,50,44,75,66,58,30.20,29.96,17,4,20,0.00
2013-9-24,68,63,57,52,50,48,73,64,56,29.97,29.91,17,4,19,0.00
2013-9-25,70,61,53,53,50,46,80,66,54,30.01,29.91,9,1,9,0.00
2013-9-26,73,61,54,58,51,46,78,70,57,29.97,29.81,12,2,15,0.00
2013-9-27,61,54,48,50,44,41,80,70,56,30.11,29.95,9,2,11,0.00
2013-9-28,66,54,44,45,41,38,85,63,41,30.05,29.95,8,2,8,0.00
2013-9-29,63,55,49,42,40,38,69,56,45,30.03,29.93,14,4,14,0.00
2013-9-30,62,55,50,42,39,36,60,54,48,29.93,29.80,18,5,18,0.00
2013-10-1,64,55,51,42,39,37,61,55,45,29.97,29.81,12,4,13,0.00
2013-10-2,55,51,46,39,33,26,62,51,38,30.36,29.97,14,5,14,0.00
2013-10-3,55,47,42,28,26,24,53,44,33,30.54,30.36,11,4,13,0.00
2013-10-4,57,46,38,30,28,25,65,50,35,30.55,30.44,7,1,7,0.00
2013-10-5,60,47,35,33,30,27,74,54,34,30.45,30.23,8,1,8,0.00
2013-10-6,66,53,44,38,34,30,60,50,35,30.33,30.25,6,1,6,0.00
2013-10-7,69,59,53,42,39,36,63,49,34,30.38,30.31,7,1,7,0.00
2013-10-8,71,58,48,41,40,39,71,52,34,30.38,30.26,9,1,10,0.00
2013-10-9,65,58,53,49,43,36,79,59,51,30.27,30.04,8,1,8,0.00
2013-10-10,57,55,53,52,50,48,86,83,78,30.04,29.89,7,0,8,0.06
2013-10-11,72,62,54,57,53,50,87,73,57,30.09,29.95,10,3,11,0.00
2013-10-12,76,65,56,60,56,52,87,74,55,30.16,30.06,9,2,11,0.43
2013-10-13,72,61,53,61,54,46,91,78,54,30.21,30.10,11,2,14,0.06
2013-10-14,67,57,49,54,49,44,84,74,59,30.22,30.10,6,1,7,0.00
2013-10-15,66,58,51,55,51,46,87,78,63,30.10,29.82,13,2,13,0.00
2013-10-16,52,51,49,48,46,44,86,84,79,29.82,29.63,19,4,21,0.45
2013-10-17,63,54,49,48,44,42,83,71,50,30.00,29.77,16,5,18,0.00
2013-10-18,62,54,47,47,44,42,84,69,53,30.14,29.94,13,3,18,0.00
2013-10-19,59,52,45,43,41,39,80,68,54,30.31,30.14,9,2,10,0.00
2013-10-20,70,57,46,53,47,40,81,68,53,30.27,30.12,8,1,12,0.00
2013-10-21,73,61,53,56,52,48,85,74,55,30.16,30.10,8,1,9,0.00
2013-10-22,68,60,53,58,54,49,90,80,68,30.17,30.10,6,1,8,0.00
2013-10-23,76,67,61,58,56,54,83,68,50,30.11,29.97,19,3,23,0.00
2013-10-24,74,64,56,58,54,51,83,71,54,30.18,30.06,7,1,11,0.00
2013-10-25,76,65,55,59,55,51,86,71,54,30.20,30.11,6,0,7,0.00
2013-10-26,74,62,53,57,53,49,87,74,56,30.16,30.10,7,1,13,0.00
2013-10-27,72,60,52,58,53,48,88,77,58,30.14,29.92,9,1,11,0.00
2013-10-28,70,64,58,58,54,49,79,70,63,30.06,29.90,11,1,13,0.00
2013-10-29,71,61,53,57,52,46,87,74,55,30.08,29.91,11,2,15,0.06
2013-10-30,62,56,51,49,45,40,81,66,54,30.33,30.06,13,4,14,0.00
2013-10-31,64,53,46,43,39,36,76,59,41,30.40,30.31,7,1,11,0.00
2013-11-1,60,54,50,49,43,38,77,67,58,30.32,30.12,6,1,8,0.00
2013-11-2,64,56,50,54,50,46,87,80,65,30.12,29.88,13,2,15,0.00
2013-11-3,64,54,50,57,49,41,91,83,69,29.91,29.63,13,2,23,0.27
2013-11-4,54,51,46,48,44,41,87,78,66,29.94,29.53,8,1,13,0.00
2013-11-5,53,51,46,50,47,39,90,86,74,29.53,29.45,14,3,20,0.35
2013-11-6,58,49,40,44,39,35,81,70,52,29.87,29.51,14,3,18,0.00
2013-11-7,62,53,47,50,45,40,86,75,65,30.05,29.87,16,3,16,0.00
2013-11-8,61,52,46,51,47,42,89,83,71,30.06,29.97,5,0,7,0.00
2013-11-9,61,54,50,51,48,46,87,81,66,29.97,29.87,12,3,16,0.06
2013-11-10,56,51,48,46,44,43,86,78,65,29.87,29.74,11,2,12,0.04
2013-11-11,53,51,49,46,43,39,86,74,63,30.29,29.80,15,5,18,0.06
2013-11-12,57,52,48,44,41,37,74,65,55,30.35,30.28,11,3,15,0.00
2013-11-13,52,49,45,47,42,39,87,78,73,30.31,30.27,12,2,15,0.00
2013-11-14,48,47,45,42,38,35,85,73,62,30.31,30.15,8,2,8,0.00
2013-11-15,50,48,46,41,38,35,75,68,64,30.40,30.17,8,3,10,0.00
2013-11-16,59,48,42,45,41,38,86,77,58,30.42,30.35,6,0,7,0.00
2013-11-17,54,45,39,45,40,36,87,83,71,30.35,30.25,3,0,7,0.00
2013-11-18,46,44,42,43,41,39,89,87,85,30.26,30.09,7,1,114,0.00
2013-11-19,46,44,41,41,39,37,87,83,77,30.09,29.75,11,3,13,0.00
2013-11-20,52,48,44,46,43,40,89,82,73,29.76,29.57,9,3,13,0.20
2013-11-21,48,44,40,45,41,37,90,87,83,29.71,29.61,9,2,13,0.24
2013-11-22,51,49,47,46,45,44,90,86,82,29.79,29.64,8,2,10,0.00
2013-11-23,55,51,46,46,45,42,85,78,73,29.79,29.74,14,3,16,0.00
2013-11-24,54,50,42,46,44,38,89,82,74,29.75,29.70,16,2,20,0.18
2013-11-25,42,38,35,38,30,26,85,74,63,30.09,29.70,27,7,32,0.04
2013-11-26,39,37,34,29,27,24,77,68,60,30.26,30.09,14,4,14,0.00
2013-11-27,42,36,30,24,22,20,74,58,43,30.47,30.26,12,3,15,0.00
2013-11-28,42,34,27,30,24,20,81,68,43,30.47,30.26,11,2,15,0.00
2013-11-29,45,40,37,33,31,30,77,71,62,30.27,30.08,17,4,21,0.00
2013-11-30,42,38,34,32,30,29,83,74,68,30.31,30.03,6,1,7,0.00
2013-12-1,47,38,31,35,30,27,84,73,56,30.36,30.30,10,1,12,0.00
2013-12-2,52,42,37,36,31,26,77,67,53,30.65,30.29,13,2,18,0.00
2013-12-3,43,36,31,27,25,23,74,63,48,30.67,30.51,7,1,7,0.00
2013-12-4,31,28,27,27,24,22,88,83,74,30.51,30.22,11,1,13,0.00
2013-12-5,44,38,31,32,30,27,87,72,59,30.31,29.91,13,4,17,0.00
2013-12-6,44,39,34,34,28,24,84,65,49,29.93,29.76,25,7,30,0.04
2013-12-7,40,37,34,29,25,22,81,62,49,30.24,29.92,23,7,27,0.00
2013-12-8,44,40,35,35,33,27,80,75,70,30.37,30.22,8,3,15,0.00
2013-12-9,46,44,38,39,36,30,78,73,64,30.33,30.16,22,6,25,0.00
2013-12-10,46,39,31,40,29,21,79,67,56,30.79,30.30,9,2,13,0.00
2013-12-11,38,34,30,25,22,20,67,62,51,30.78,30.62,8,2,114,0.00
2013-12-12,37,36,34,31,29,24,85,77,63,30.62,30.45,7,1,8,0.00
2013-12-13,35,34,33,30,29,28,85,83,81,30.46,30.35,6,1,6,0.00
2013-12-14,35,33,31,30,28,27,85,82,79,30.51,30.37,7,2,9,0.00
2013-12-15,39,36,34,34,32,29,88,84,81,30.61,30.50,7,1,8,0.00
2013-12-16,35,34,34,32,31,30,89,87,85,30.72,30.60,6,1,114,0.00
2013-12-17,34,33,31,31,30,28,89,87,85,30.71,30.56,10,2,11,0.00
2013-12-18,33,31,29,29,27,25,87,86,84,30.56,30.36,7,1,8,0.00
2013-12-19,32,31,29,29,27,25,89,86,85,30.36,30.20,9,1,12,0.00
2013-12-20,34,31,30,30,28,26,89,87,86,30.52,30.26,6,1,7,0.00
2013-12-21,45,38,33,35,32,29,87,79,66,30.65,30.52,11,2,15,0.00
2013-12-22,34,34,33,31,30,29,87,86,84,30.62,30.36,11,2,11,0.00
2013-12-23,42,38,34,37,34,30,89,85,81,30.36,30.32,8,2,11,0.00
2013-12-24,44,39,36,41,36,32,92,87,78,30.32,30.03,8,1,9,0.00
2013-12-25,51,42,36,36,34,31,86,71,56,30.03,29.79,12,2,16,0.00
2013-12-26,48,43,39,42,37,34,85,79,74,29.79,29.62,10,3,15,0.06
2013-12-27,53,47,41,43,41,37,85,79,70,30.04,29.70,11,2,13,0.02
2013-12-28,46,42,39,43,38,35,89,87,84,30.08,30.00,2,0,4,0.00
2013-12-29,49,42,36,43,37,33,91,83,70,30.24,29.99,12,1,13,0.00
2013-12-30,48,45,44,40,38,36,83,74,69,30.39,30.24,12,2,12,0.00
2013-12-31,44,40,37,37,35,32,88,82,74,30.35,30.25,9,2,10,0.00
2014-1-1,40,39,36,35,33,31,83,81,78,30.25,30.15,7,1,10,0.00
2014-1-2,45,41,38,36,34,32,84,78,70,30.15,29.97,6,1,114,0.00